FENGYUN 1C DEB

Satellite information

Favourite Embed

Satellite Type and Status

DEBRISIN ORBIT

Key statistics

Satellite FENGYUN 1C DEB at a glance.

Uptime

9555

Days in orbit

Revolutions

≈ 14.2

Per day

Orbit

SSO

Sun Synchronous Orbit

Inclination

98.9

Latest

Satellite identification and parameters

Extended collection of information and parameters for FENGYUN 1C DEB.

Object identification

Identified? True

Debris? True

Object name: FENGYUN 1C DEB

International designator: 1999-025AYT

Object number (NORAD): 30905

Object ID (CCSDS): 30905

Country: PEOPLES REPUBLIC OF CHINA (PRC)

Current information (Y/N): Y

RCS size: SMALL

Orbital parameters

Period: 101.653 minutes

Inclination: 98.8951 deg

SMA: 7215.072 km

Apoapsis: 880.472 km

Periapsis: 793.401 km

RAAN: 261.3183 deg

Eccentricy: 0.006034

Argument of periapsis: 176.0598 deg

Mean anomaly: 184.1063 deg

Mean motion: 14.16582274 rev/day

Mean motion (dot): 0.00002739 rev/day2

B* drag term: 0.0013713 1/REarth

Two-line elements (TLE)

Creation date: July 5, 2025, 5:45 p.m.

Reference frame: TEME

Reference center: EARTH

Epoch: July 4, 2025, 10:38 p.m. UTC

TLE line 0: 0 FENGYUN 1C DEB

TLE line 1: 1 30905U 99025AYT 25185.94311682 .00002739 00000-0 13713-2 0 9995

TLE line 2: 2 30905 98.8951 261.3183 0060340 176.0598 184.1063 14.16582274938454

Live tracking on map

Real-time ground track for satellite FENGYUN 1C DEB.

In-orbit conjunctions

A list of the most updated potential collisions computed for object FENGYUN 1C DEB.

Target Orbit TCA Probability of collision Miss distance Type
FENGYUN 1C DEB SSO 2025-07-05 23:15:07 0.0001375192 261.0 (m) DEBRIS
COSMOS 2251 DEB LEO 2024-11-10 18:01:44 0.0007551187 563.0 (m) DEBRIS
THORAD AGENA D DEB LEO 2024-08-29 03:20:43 0.0005566652 119.0 (m) DEBRIS

Associated space launch

Chinese polar orbiting meteorological satellite

FENGYUN 1C DEB was lifted into orbit during the mission ‘Long March 4B | Feng Yun 1C’, on board a Long March 4B space rocket.

The launch took place on May 10, 1999, 1:33 a.m. from Launch Complex 7.

For more information about the launch, click the button.

Launch to space Long March 4B | Feng Yun 1C
Long March 4B | Feng Yun 1C

Agency: N/A

Status: Launch Successful

Launch date: May 10, 1999, 1:33 a.m. UTC

Rocket: Long March 4B

Launch pad: Launch Complex 7

Location: Taiyuan Satellite Launch Center, People's Republic of China

...

Latest news about this satellite

There are no fresh news available about this satellite. Check back as we update our databases every day.


Newsletter sign-up

Weekly statistics, charts and insights to help you stay on top of the space industry.